Meteo Giornale » Osservazioni meteo Stati Uniti (USA) » Sacramento Executive
ore: 09:53 - Osservazioni Meteo Sacramento Executive
Lat. 38° 30' N Lon. 121° 29' W Alt. 6 metri s.l.m.
19 °C
Nuvoloso
Temp. 24 Ore
14 °C
23 °C
Sud
13 Km/h
Dew point 11 °C
Umidità 59 %
Visibilità 10 Km
Il sole sorge alle ore 06:35
Il sole tramonta alle ore 19:36
| Data e Ora | Cielo e Fenomeni | T °C | DP °C | Um. % | Pres. hPa | Vis. km | Vento km/h | |
|---|---|---|---|---|---|---|---|---|
| Oggi h: 09:53 | Nuvoloso | 19 | 11 | 59 | 1015 | 10 | S 13 | |
| Oggi h: 08:53 | Sereno | 17 | 12 | 72 | 1015 | 10 | S 13 | |
| Oggi h: 07:53 | Sereno | 15 | 12 | 82 | 1014 | 10 | SE 13 | |
| Oggi h: 06:53 | Sereno | 14 | 12 | 87 | 1013 | 10 | S 11.1 | |
| Oggi h: 05:53 | Sereno | 14 | 12 | 87 | 1013 | 10 | S 13 | |
| Oggi h: 04:53 | Sereno | 14 | 12 | 87 | 1012 | 10 | S 9.3 | |
| Oggi h: 03:53 | Sereno | 14 | 12 | 87 | 1012 | 10 | S/SE 9.3 | |
| Oggi h: 03:06 | Nuvoloso | 15 | 12 | 82 | 1012 | 10 | S/SE 14.8 | |
| Oggi h: 02:53 | Molto Nuvoloso | 15 | 12 | 82 | 1012 | 10 | SE 13 | |
| Oggi h: 02:42 | Molto Nuvoloso | 15 | 12 | 82 | 1012 | 10 | SE 9.3 | |
| Oggi h: 02:17 | Nuvoloso | 15 | 11 | 76 | 1012 | 10 | SE 11.1 | |
| Oggi h: 01:53 | Coperto | 16 | 11 | 72 | 1012 | 10 | S/SE 11.1 | |
| Oggi h: 01:04 | Molto Nuvoloso | 15 | 11 | 76 | 1012 | 10 | E/SE 9.3 | |
| Oggi h: 00:53 | Nuvoloso | 15 | 12 | 82 | 1012 | 10 | S/SE 9.3 | |
| Ieri h: 23:53 | Sereno | 16 | 12 | 77 | 1012 | 10 | S 13 | |
| Ieri h: 22:53 | Sereno | 16 | 12 | 77 | 1012 | 10 | S 18.5 | |
| Ieri h: 21:53 | Sereno | 16 | 12 | 77 | 1011 | 10 | S 18.5 | |
| Ieri h: 20:53 | Sereno | 17 | 12 | 72 | 1011 | 10 | S/SO 16.7 | |
| Ieri h: 19:53 | Sereno | 18 | 12 | 67 | 1010 | 10 | S/SO 20.3 | |
| Ieri h: 18:53 | Sereno | 19 | 12 | 63 | 1010 | 10 | S/SO 24 | |
| Ieri h: 17:53 | Sereno | 22 | 12 | 53 | 1010 | 10 | S 25.9 | |
| Ieri h: 16:53 | Sereno | 23 | 12 | 49 | 1010 | 10 | S/SO 20.3 | |
| Ieri h: 15:53 | Sereno | 23 | 12 | 49 | 1011 | 10 | S/SO 18.5 | |
| Ieri h: 14:53 | Sereno | 23 | 11 | 46 | 1011 | 10 | SO 27.8 | |
| Ieri h: 13:53 | Sereno | 22 | 11 | 49 | 1012 | 10 | SO 25.9 | |
| Ieri h: 12:53 | Sereno | 22 | 12 | 53 | 1012 | 10 | S 20.3 | |
| Ieri h: 11:53 | Sereno | 20 | 12 | 59 | 1012 | 10 | S/SO 20.3 | |
| Ieri h: 10:53 | Sereno | 18 | 12 | 67 | 1012 | 10 | S/SO 25.9 | |



